Flag for U.S.A. Weather past 2 weeks in Mason, Ohio, U.S.A.

Now
69 °F

Light rain. Overcast.


Feels Like: 69 °F
Forecast: 63 / 77 °F
Wind: No wind

Location: Butler County Regional Airport

Current Time: Jul 2, 2015 at 2:22:23 AM

Latest Report: Jul 2, 2015 at 1:53 AM


Visibility: 8 mi

Pressure: 29.90 "Hg

Humidity: 93%

Dew point: 67 °F

Location of MasonLocation

Historic Weather in Mason — Graph

°F

Mason temperature yesterday

Maximum temperature yesterday: 80 °F (at 1:53 PM)
Minimum temperature yesterday: 58 °F (at 6:53 AM)
Average temperature yesterday: 70 °F

Past Weeks' High & Low Weather Summary

 TemperatureHumidityPressure
High89 °F (Jun 18, 3:53 PM)100% (Jun 17, 5:53 PM)30.18 "Hg (Jun 17, 5:53 PM)
Low57 °F (Jun 28, 6:53 AM)42% (Jun 24, 1:53 PM)29.72 "Hg (Jun 27, 5:53 AM)
Average73 °F82%29.94 "Hg
* Reported Jun 17 6:53 AM — Jul 2 12:53 AM, Mason, Weather by CustomWeather, © 2015

Note: Actual official high and low records may vary slightly from our data, if they occured in-between our weather recording intervals... More about our weather records

Advertising

Mason weather history for previous 24 hours

 ConditionsComfort  
Time TempWeatherWind HumidityBarometerVisibility
12:53 AM
Thu, Jul 2
69 °FPassing clouds.No wind93%29.92 "Hg7 mi
11:53 PM
Wed, Jul 1
69 °FMostly cloudy.3 mph90%29.93 "Hg8 mi
10:53 PM67 °FPassing clouds.No wind93%29.93 "Hg8 mi
9:53 PM67 °FPassing clouds.No wind93%29.92 "Hg8 mi
8:53 PM70 °FScattered clouds.No wind87%29.91 "Hg8 mi
7:53 PM74 °FSunny.No wind76%29.90 "Hg10 mi
6:53 PM78 °FSunny.6 mph60%29.89 "Hg10 mi
5:53 PM79 °FSunny.No wind54%29.89 "Hg9 mi
4:53 PM80 °FBroken clouds.3 mph52%29.90 "Hg10 mi
3:53 PM79 °FScattered clouds.No wind54%29.91 "Hg10 mi
2:53 PM79 °FPassing clouds.No wind50%29.91 "Hg10 mi
1:53 PM80 °FSunny.N/A52%29.93 "Hg10 mi
12:53 PM78 °FPartly sunny.6 mph60%29.95 "Hg10 mi
11:53 AM76 °FPassing clouds.No wind62%29.96 "Hg10 mi
10:53 AM74 °FSunny.5 mph64%29.94 "Hg10 mi
9:53 AM70 °FSunny.5 mph71%29.95 "Hg10 mi
8:53 AM67 °FPartly sunny.3 mph81%29.93 "Hg8 mi
8:04 AM63 °FFog.No wind100%29.93 "Hg4 mi
7:53 AM63 °FFog.No wind100%29.92 "Hg2 mi
6:53 AM58 °FFog.No wind100%29.90 "Hg0 mi
5:53 AM59 °FFog.No wind96%29.89 "Hg2 mi
4:55 AM59 °FFog.No wind96%29.89 "Hg1 mi
3:53 AM61 °FFog.No wind97%29.88 "Hg2 mi
2:53 AM64 °FFog.3 mph97%29.88 "Hg5 mi
Weather by CustomWeather, © 2015

See weather overviewHow to use our weather pages